Location: Newark
(27.9675°N, 86.8869°E)
Time: 19:56:27
(UTC+00:00)

Vanguard 3 - Pass Details

Date: 23 October 2019
Orbit: 508 x 3263 km, 33.4° (Epoch: 18 November)

Event Time Altitude Azimuth Distance (km) Brightness Sun altitude
Rises 15:29:17 0° 240° (WSW) 4,095 11.1 -51.8°
Enters shadow 15:31:00 - 239° (WSW) 3,424 10.6 -52.1°
Reaches altitude 10° 15:32:45 10° 237° (WSW) 2,731 - -52.5°
Maximum altitude 15:38:41 62° 158° (SSE) 769 - -53.7°
Drops below altitude 10° 15:42:39 10° 77° (ENE) 1,839 - -54.6°
Sets 15:44:36 0° 73° (ENE) 2,644 - -55.0°
